EW0322 Weather Reports


Display with metric or nautical units.
time (UTC)temp
F
wind
direction
speed
MPH
gust
MPH
rain 1hr
in
rain 24hr
in
rain mn
in
humidity
%
barometer
mb
20210618171515 89 196 2.0 6.0 0.00 0.00 0.00 24 1004.8
20210618170036 88 169 0.0 6.0 0.00 0.00 0.00 24 1004.9
20210618163136 86 186 2.0 6.0 0.00 0.00 0.00 26 1005.2
20210618161614 86 196 3.0 8.0 0.00 0.00 0.00 25 1005.3
20210618160201 85 184 2.0 4.0 0.00 0.00 0.00 26 1005.4
20210618154642 84 167 1.0 4.0 0.00 0.00 0.00 28 1005.6
20210618153100 84 153 0.0 5.0 0.00 0.00 0.00 28 1005.7
20210618151555 83 149 2.0 5.0 0.00 0.00 0.00 29 1005.9
20210618150111 82 180 2.0 4.0 0.00 0.00 0.00 30 1006.0
20210618144533 81 186 2.0 9.0 0.00 0.00 0.00 31 1006.0
20210618143026 80 115 0.0 4.0 0.00 0.00 0.00 32 1006.0
20210618141622 79 148 1.0 4.0 0.00 0.00 0.00 33 1006.0
20210618140016 78 155 1.0 4.0 0.00 0.00 0.00 34 1005.9
20210618134524 77 167 1.0 4.0 0.00 0.00 0.00 34 1006.0
20210618133027 76 113 0.0 3.0 0.00 0.00 0.00 35 1005.7
20210618130121 74 105 0.0 0.0 0.00 0.00 0.00 36 1005.5
20210618124723 74 105 0.0 0.0 0.00 0.00 0.00 35 1005.4
20210618123205 74 103 0.0 2.0 0.00 0.00 0.00 34 1005.2
20210618121627 74 100 0.0 2.0 0.00 0.00 0.00 33 1005.2
20210618120200 74 93 0.0 0.0 0.00 0.00 0.00 33 1005.2
20210618114713 74 92 0.0 0.0 0.00 0.00 0.00 32 1005.0
20210618113106 75 93 0.0 0.0 0.00 0.00 0.00 32 1005.0
20210618111613 75 92 0.0 0.0 0.00 0.00 0.00 31 1004.9
20210618110125 75 92 0.0 0.0 0.00 0.00 0.00 29 1004.8
20210618104649 76 92 0.0 0.0 0.00 0.00 0.00 28 1004.8
20210618103136 76 92 0.0 0.0 0.00 0.00 0.00 28 1004.9
20210618101600 75 92 0.0 0.0 0.00 0.00 0.00 28 1004.8
20210618100054 75 92 0.0 0.0 0.00 0.00 0.00 27 1004.8
20210618094604 75 92 0.0 0.0 0.00 0.00 0.00 26 1004.9
20210618093102 76 92 0.0 0.0 0.00 0.00 0.00 26 1004.9
20210618091550 77 92 0.0 0.0 0.00 0.00 0.00 25 1004.8
20210618090122 78 92 0.0 0.0 0.00 0.00 0.00 24 1004.8
20210618084546 78 92 0.0 1.0 0.00 0.00 0.00 24 1004.8
20210618083100 79 92 0.0 3.0 0.00 0.00 0.00 24 1004.9
20210618081545 79 92 0.0 3.0 0.00 0.00 0.00 24 1004.9
20210618080030 80 92 0.0 5.0 0.00 0.00 0.00 23 1004.9
20210618074526 80 88 0.0 3.0 0.00 0.00 0.00 23 1005.0
20210618073028 80 83 0.0 2.0 0.00 0.00 0.00 22 1005.0
20210618071521 80 83 0.0 0.0 0.00 0.00 0.00 22 1005.0
20210618070025 80 82 0.0 5.0 0.00 0.00 0.00 21 1005.0
20210618064532 80 83 0.0 0.0 0.00 0.00 0.00 21 1004.9
20210618063023 81 83 0.0 3.0 0.00 0.00 0.00 20 1005.0
20210618061519 82 82 0.0 5.0 0.00 0.00 0.00 20 1005.0
20210618060016 82 76 0.0 3.0 0.00 0.00 0.00 19 1004.9
20210618054554 83 87 0.0 5.0 0.00 0.00 0.00 19 1004.9